Location: Heisede
(52.2582°N, 9.8523°E)
Time: 01:03:13
(UTC+00:00)

Cosmos 44 - Pass Details

Date: 13 January 2026
Orbit: 570 x 780 km, 65.1° (Epoch: 18 February)

Event Time Altitude Azimuth Distance (km) Brightness Sun altitude
Exits shadow 06:10:27 13° 310° (NW) 2,120 5.2 -10.8°
Maximum altitude 06:15:07 53° 236° (SW) 948 3.8 -10.1°
Drops below altitude 10° 06:20:21 10° 161° (SSE) 2,328 6.6 -9.4°
Sets 06:22:48 0° 156° (SSE) 3,248 7.5 -9.1°
